| time (UTC) | temp F | wind direction | speed knots | gust knots | rain 1hr in | rain 24hr in | rain mn in | humidity % | barometer mb |
| 20260505102127 | 45 | 163 | 0.0 | 0.0 | 0.00 | 0.00 | 0.00 | 73 | 1012.0 |
| 20260505101627 | 45 | 227 | 0.0 | 0.9 | 0.00 | 0.00 | 0.00 | 73 | 1012.0 |
| 20260505101127 | 45 | 200 | 0.9 | 1.7 | 0.00 | 0.00 | 0.00 | 73 | 1012.0 |
| 20260505100627 | 45 | 135 | 0.9 | 0.9 | 0.00 | 0.00 | 0.00 | 72 | 1011.0 |
| 20260505100128 | 45 | 0 | 0.0 | 0.0 | 0.00 | 0.00 | 0.00 | 72 | 1011.0 |
| 20260505095629 | 46 | 0 | 0.0 | 0.0 | 0.00 | 0.00 | 0.00 | 72 | 1011.0 |
| 20260505095127 | 46 | 147 | 0.9 | 0.9 | 0.00 | 0.00 | 0.00 | 72 | 1011.0 |
| 20260505094629 | 47 | 185 | 0.9 | 1.7 | 0.00 | 0.00 | 0.00 | 71 | 1011.0 |
| 20260505094127 | 46 | 228 | 0.0 | 0.9 | 0.00 | 0.00 | 0.00 | 70 | 1011.0 |
| 20260505093628 | 47 | 0 | 0.0 | 0.0 | 0.00 | 0.00 | 0.00 | 70 | 1011.0 |
| 20260505093127 | 47 | 75 | 1.7 | 2.6 | 0.00 | 0.00 | 0.00 | 69 | 1011.0 |
| 20260505092628 | 47 | 191 | 1.7 | 1.7 | 0.00 | 0.00 | 0.00 | 69 | 1011.0 |
| 20260505092128 | 46 | 229 | 0.0 | 0.9 | 0.00 | 0.00 | 0.00 | 71 | 1011.0 |
| 20260505091627 | 47 | 0 | 0.0 | 0.0 | 0.00 | 0.00 | 0.00 | 69 | 1011.0 |
| 20260505091127 | 47 | 71 | 0.0 | 0.9 | 0.00 | 0.00 | 0.00 | 71 | 1011.0 |
| 20260505090627 | 47 | 174 | 0.9 | 0.9 | 0.00 | 0.00 | 0.00 | 71 | 1011.0 |
| 20260505090129 | 48 | 155 | 0.0 | 0.9 | 0.00 | 0.00 | 0.00 | 69 | 1011.0 |
| 20260505085627 | 48 | 183 | 1.7 | 1.7 | 0.00 | 0.00 | 0.00 | 68 | 1011.0 |
| 20260505085127 | 48 | 195 | 1.7 | 1.7 | 0.00 | 0.00 | 0.00 | 68 | 1011.0 |
| 20260505084628 | 49 | 136 | 0.9 | 1.7 | 0.00 | 0.00 | 0.00 | 68 | 1011.0 |
| 20260505083724 | 49 | 0 | 0.0 | 0.0 | 0.00 | 0.00 | 0.00 | 67 | 1011.0 |
| 20260505083128 | 49 | 0 | 0.0 | 0.0 | 0.00 | 0.00 | 0.00 | 66 | 1011.0 |
| 20260505082627 | 50 | 0 | 0.0 | 0.0 | 0.00 | 0.00 | 0.00 | 66 | 1011.0 |
| 20260505082127 | 50 | 219 | 0.9 | 1.7 | 0.00 | 0.00 | 0.00 | 65 | 1011.0 |
| 20260505081627 | 50 | 176 | 0.9 | 1.7 | 0.00 | 0.00 | 0.00 | 65 | 1011.0 |
| 20260505081127 | 51 | 149 | 0.0 | 0.9 | 0.00 | 0.00 | 0.00 | 66 | 1011.0 |
| 20260505080627 | 51 | 205 | 0.9 | 0.9 | 0.00 | 0.00 | 0.00 | 64 | 1011.0 |
| 20260505080127 | 52 | 193 | 0.9 | 0.9 | 0.00 | 0.00 | 0.00 | 64 | 1011.0 |
| 20260505075627 | 52 | 200 | 0.0 | 0.9 | 0.00 | 0.00 | 0.00 | 62 | 1011.0 |
| 20260505075127 | 53 | 179 | 0.0 | 0.9 | 0.00 | 0.00 | 0.00 | 62 | 1010.0 |
| 20260505074630 | 53 | 167 | 0.9 | 0.9 | 0.00 | 0.00 | 0.00 | 62 | 1010.0 |
| 20260505074127 | 55 | 124 | 0.9 | 0.9 | 0.00 | 0.00 | 0.00 | 61 | 1010.0 |
| 20260505073627 | 56 | 0 | 0.0 | 0.0 | 0.00 | 0.00 | 0.00 | 58 | 1010.0 |
| 20260505073127 | 56 | 0 | 0.0 | 0.0 | 0.00 | 0.00 | 0.00 | 57 | 1010.0 |
| 20260505072627 | 57 | 159 | 1.7 | 2.6 | 0.00 | 0.00 | 0.00 | 55 | 1010.0 |
| 20260505072128 | 57 | 205 | 1.7 | 2.6 | 0.00 | 0.00 | 0.00 | 55 | 1010.0 |
| 20260505071627 | 58 | 149 | 0.0 | 0.9 | 0.00 | 0.00 | 0.00 | 56 | 1010.0 |
| 20260505071128 | 58 | 180 | 0.0 | 1.7 | 0.00 | 0.00 | 0.00 | 55 | 1010.0 |
| 20260505070627 | 60 | 234 | 1.7 | 2.6 | 0.00 | 0.00 | 0.00 | 52 | 1010.0 |
| 20260505070129 | 61 | 165 | 2.6 | 4.3 | 0.00 | 0.00 | 0.00 | 47 | 1010.0 |
| 20260505065627 | 61 | 95 | 1.7 | 2.6 | 0.00 | 0.00 | 0.00 | 46 | 1010.0 |
| 20260505065128 | 61 | 126 | 1.7 | 3.5 | 0.00 | 0.00 | 0.00 | 47 | 1010.0 |
| 20260505064628 | 62 | 78 | 3.5 | 6.1 | 0.00 | 0.00 | 0.00 | 46 | 1010.0 |
| 20260505064127 | 62 | 89 | 4.3 | 7.8 | 0.00 | 0.00 | 0.00 | 45 | 1010.0 |
| 20260505063627 | 62 | 90 | 3.5 | 6.1 | 0.00 | 0.00 | 0.00 | 45 | 1010.0 |
| 20260505063128 | 62 | 91 | 3.5 | 5.2 | 0.00 | 0.00 | 0.00 | 44 | 1010.0 |
| 20260505062628 | 62 | 86 | 4.3 | 7.0 | 0.00 | 0.00 | 0.00 | 45 | 1009.0 |
| 20260505062127 | 62 | 93 | 3.5 | 5.2 | 0.00 | 0.00 | 0.00 | 45 | 1009.0 |
| 20260505061627 | 62 | 90 | 4.3 | 7.0 | 0.00 | 0.00 | 0.00 | 45 | 1009.0 |
| 20260505061127 | 61 | 113 | 3.5 | 4.3 | 0.00 | 0.00 | 0.00 | 48 | 1009.0 |
| 20260505060627 | 62 | 123 | 2.6 | 3.5 | 0.00 | 0.00 | 0.00 | 47 | 1009.0 |
| 20260505060127 | 62 | 121 | 3.5 | 5.2 | 0.00 | 0.00 | 0.00 | 46 | 1009.0 |
| 20260505055627 | 63 | 103 | 3.5 | 5.2 | 0.00 | 0.00 | 0.00 | 46 | 1009.0 |
| 20260505055127 | 64 | 127 | 1.7 | 3.5 | 0.00 | 0.00 | 0.00 | 44 | 1009.0 |
| 20260505054628 | 64 | 121 | 2.6 | 3.5 | 0.00 | 0.00 | 0.00 | 44 | 1009.0 |
| 20260505054127 | 65 | 127 | 2.6 | 3.5 | 0.00 | 0.00 | 0.00 | 44 | 1009.0 |
| 20260505053627 | 65 | 131 | 1.7 | 4.3 | 0.00 | 0.00 | 0.00 | 43 | 1009.0 |
| 20260505053127 | 66 | 139 | 1.7 | 2.6 | 0.00 | 0.00 | 0.00 | 41 | 1009.0 |
| 20260505052627 | 66 | 104 | 1.7 | 3.5 | 0.00 | 0.00 | 0.00 | 41 | 1009.0 |
| 20260505052127 | 67 | 98 | 1.7 | 3.5 | 0.00 | 0.00 | 0.00 | 41 | 1009.0 |
| 20260505051627 | 67 | 99 | 3.5 | 5.2 | 0.00 | 0.00 | 0.00 | 39 | 1009.0 |
| 20260505051127 | 66 | 98 | 3.5 | 5.2 | 0.00 | 0.00 | 0.00 | 40 | 1009.0 |
| 20260505050627 | 66 | 87 | 1.7 | 4.3 | 0.00 | 0.00 | 0.00 | 40 | 1009.0 |
| 20260505050127 | 66 | 101 | 1.7 | 3.5 | 0.00 | 0.00 | 0.00 | 42 | 1009.0 |
| 20260505041627 | 63 | 78 | 0.9 | 1.7 | 0.00 | 0.00 | 0.00 | 47 | 1008.0 |
| 20260505041127 | 64 | 54 | 1.7 | 2.6 | 0.00 | 0.00 | 0.00 | 48 | 1008.0 |
| 20260505040628 | 65 | 105 | 1.7 | 2.6 | 0.00 | 0.00 | 0.00 | 51 | 1008.0 |
| 20260505040127 | 65 | 94 | 2.6 | 5.2 | 0.00 | 0.00 | 0.00 | 48 | 1008.0 |
| 20260505035628 | 66 | 112 | 1.7 | 3.5 | 0.00 | 0.00 | 0.00 | 53 | 1008.0 |
| 20260505035127 | 68 | 113 | 1.7 | 6.1 | 0.00 | 0.00 | 0.00 | 49 | 1008.0 |
| 20260505034627 | 69 | 107 | 3.5 | 5.2 | 0.00 | 0.00 | 0.00 | 42 | 1008.0 |
| 20260505034127 | 70 | 130 | 4.3 | 7.8 | 0.00 | 0.00 | 0.00 | 41 | 1007.0 |
| 20260505033628 | 71 | 94 | 2.6 | 7.0 | 0.00 | 0.00 | 0.00 | 40 | 1007.0 |
| 20260505033127 | 72 | 108 | 2.6 | 5.2 | 0.00 | 0.00 | 0.00 | 37 | 1007.0 |
| 20260505032628 | 74 | 176 | 0.9 | 1.7 | 0.00 | 0.00 | 0.00 | 36 | 1007.0 |
| 20260505032127 | 76 | 69 | 0.9 | 2.6 | 0.00 | 0.00 | 0.00 | 33 | 1007.0 |
| 20260505031627 | 76 | 47 | 3.5 | 5.2 | 0.00 | 0.00 | 0.00 | 30 | 1007.0 |
| 20260505031127 | 76 | 100 | 3.5 | 5.2 | 0.00 | 0.00 | 0.00 | 32 | 1007.0 |
| 20260505030627 | 76 | 113 | 5.2 | 7.8 | 0.00 | 0.00 | 0.00 | 31 | 1007.0 |
| 20260505030128 | 76 | 102 | 7.0 | 9.6 | 0.00 | 0.00 | 0.00 | 31 | 1007.0 |
| 20260505025628 | 76 | 89 | 7.8 | 9.6 | 0.00 | 0.00 | 0.00 | 32 | 1007.0 |
| 20260505025127 | 77 | 65 | 3.5 | 6.1 | 0.00 | 0.00 | 0.00 | 30 | 1007.0 |
| 20260505024628 | 77 | 131 | 1.7 | 2.6 | 0.00 | 0.00 | 0.00 | 35 | 1007.0 |
| 20260505024127 | 78 | 126 | 2.6 | 3.5 | 0.00 | 0.00 | 0.00 | 32 | 1007.0 |
| 20260505023627 | 78 | 111 | 2.6 | 4.3 | 0.00 | 0.00 | 0.00 | 31 | 1007.0 |
| 20260505023127 | 79 | 115 | 3.5 | 5.2 | 0.00 | 0.00 | 0.00 | 30 | 1007.0 |
| 20260505022627 | 79 | 117 | 5.2 | 7.8 | 0.00 | 0.00 | 0.00 | 29 | 1007.0 |
| 20260505022127 | 79 | 101 | 3.5 | 4.3 | 0.00 | 0.00 | 0.00 | 31 | 1007.0 |
| 20260505021626 | 80 | 101 | 3.5 | 5.2 | 0.00 | 0.00 | 0.00 | 31 | 1007.0 |
| 20260505021131 | 80 | 103 | 6.1 | 7.8 | 0.00 | 0.00 | 0.00 | 29 | 1007.0 |
| 20260505020627 | 80 | 130 | 5.2 | 7.0 | 0.00 | 0.00 | 0.00 | 32 | 1007.0 |
| 20260505020127 | 80 | 149 | 1.7 | 2.6 | 0.00 | 0.00 | 0.00 | 32 | 1007.0 |
| 20260505015627 | 80 | 162 | 1.7 | 2.6 | 0.00 | 0.00 | 0.00 | 33 | 1007.0 |
| 20260505015127 | 80 | 150 | 2.6 | 3.5 | 0.00 | 0.00 | 0.00 | 32 | 1007.0 |
| 20260505014629 | 80 | 158 | 2.6 | 3.5 | 0.00 | 0.00 | 0.00 | 33 | 1007.0 |
| 20260505014127 | 80 | 134 | 2.6 | 3.5 | 0.00 | 0.00 | 0.00 | 33 | 1007.0 |
| 20260505013627 | 80 | 111 | 2.6 | 4.3 | 0.00 | 0.00 | 0.00 | 33 | 1007.0 |
| 20260505013127 | 81 | 122 | 2.6 | 2.6 | 0.00 | 0.00 | 0.00 | 33 | 1007.0 |
| 20260505012627 | 81 | 152 | 2.6 | 4.3 | 0.00 | 0.00 | 0.00 | 31 | 1007.0 |
| 20260505012127 | 80 | 164 | 1.7 | 3.5 | 0.00 | 0.00 | 0.00 | 32 | 1007.0 |
| 20260505011627 | 80 | 104 | 3.5 | 5.2 | 0.00 | 0.00 | 0.00 | 32 | 1007.0 |
| 20260505011127 | 80 | 139 | 1.7 | 2.6 | 0.00 | 0.00 | 0.00 | 30 | 1007.0 |
| 20260505010627 | 81 | 96 | 3.5 | 5.2 | 0.00 | 0.00 | 0.00 | 30 | 1007.0 |
| 20260505010127 | 81 | 132 | 2.6 | 3.5 | 0.00 | 0.00 | 0.00 | 31 | 1007.0 |
| 20260505005627 | 80 | 122 | 1.7 | 3.5 | 0.00 | 0.00 | 0.00 | 30 | 1007.0 |
| 20260505005128 | 80 | 79 | 4.3 | 5.2 | 0.00 | 0.00 | 0.00 | 31 | 1007.0 |
| 20260505004628 | 80 | 109 | 1.7 | 2.6 | 0.00 | 0.00 | 0.00 | 32 | 1007.0 |
| 20260505004127 | 80 | 130 | 4.3 | 7.8 | 0.00 | 0.00 | 0.00 | 30 | 1007.0 |
| 20260505003627 | 80 | 129 | 4.3 | 6.1 | 0.00 | 0.00 | 0.00 | 31 | 1007.0 |
| 20260505003127 | 80 | 115 | 3.5 | 4.3 | 0.00 | 0.00 | 0.00 | 33 | 1007.0 |
| 20260505002628 | 80 | 102 | 3.5 | 5.2 | 0.00 | 0.00 | 0.00 | 32 | 1007.0 |
| 20260505002128 | 80 | 114 | 4.3 | 6.1 | 0.00 | 0.00 | 0.00 | 32 | 1007.0 |
| 20260505001627 | 80 | 126 | 5.2 | 7.8 | 0.00 | 0.00 | 0.00 | 32 | 1007.0 |
| 20260505001127 | 80 | 106 | 5.2 | 7.8 | 0.00 | 0.00 | 0.00 | 31 | 1007.0 |
| 20260505000628 | 80 | 105 | 6.1 | 9.6 | 0.00 | 0.00 | 0.00 | 32 | 1007.0 |
| 20260505000127 | 79 | 135 | 2.6 | 5.2 | 0.00 | 0.00 | 0.00 | 34 | 1007.0 |
| 20260504235627 | 79 | 117 | 2.6 | 5.2 | 0.00 | 0.00 | 0.00 | 33 | 1007.0 |
| 20260504235128 | 79 | 120 | 3.5 | 6.1 | 0.00 | 0.00 | 0.00 | 33 | 1007.0 |
| 20260504234627 | 79 | 121 | 3.5 | 7.0 | 0.00 | 0.00 | 0.00 | 34 | 1007.0 |
| 20260504234127 | 80 | 124 | 4.3 | 5.2 | 0.00 | 0.00 | 0.00 | 33 | 1007.0 |
| 20260504233628 | 79 | 99 | 4.3 | 8.7 | 0.00 | 0.00 | 0.00 | 33 | 1007.0 |
| 20260504233127 | 79 | 102 | 4.3 | 6.1 | 0.00 | 0.00 | 0.00 | 33 | 1007.0 |
| 20260504232627 | 80 | 112 | 3.5 | 4.3 | 0.00 | 0.00 | 0.00 | 31 | 1007.0 |
| 20260504232127 | 79 | 110 | 4.3 | 7.0 | 0.00 | 0.00 | 0.00 | 33 | 1007.0 |
| 20260504231627 | 78 | 105 | 3.5 | 5.2 | 0.00 | 0.00 | 0.00 | 34 | 1007.0 |
| 20260504231127 | 78 | 102 | 5.2 | 9.6 | 0.00 | 0.00 | 0.00 | 33 | 1007.0 |
| 20260504230628 | 78 | 111 | 4.3 | 7.0 | 0.00 | 0.00 | 0.00 | 35 | 1007.0 |
| 20260504230128 | 79 | 104 | 4.3 | 5.2 | 0.00 | 0.00 | 0.00 | 34 | 1008.0 |
| 20260504225632 | 80 | 46 | 3.5 | 5.2 | 0.00 | 0.00 | 0.00 | 31 | 1008.0 |
| 20260504225128 | 80 | 285 | 0.0 | 1.7 | 0.00 | 0.00 | 0.00 | 32 | 1008.0 |
| 20260504224627 | 80 | 291 | 3.5 | 6.1 | 0.00 | 0.00 | 0.00 | 31 | 1008.0 |
| 20260504224127 | 80 | 296 | 3.5 | 7.0 | 0.00 | 0.00 | 0.00 | 32 | 1008.0 |
| 20260504223629 | 80 | 278 | 3.5 | 6.1 | 0.00 | 0.00 | 0.00 | 28 | 1008.0 |
| 20260504223129 | 81 | 294 | 1.7 | 3.5 | 0.00 | 0.00 | 0.00 | 30 | 1008.0 |
| 20260504222627 | 81 | 230 | 2.6 | 4.3 | 0.00 | 0.00 | 0.00 | 30 | 1008.0 |
| 20260504222127 | 81 | 274 | 3.5 | 6.1 | 0.00 | 0.00 | 0.00 | 30 | 1008.0 |
| 20260504221627 | 81 | 280 | 3.5 | 7.0 | 0.00 | 0.00 | 0.00 | 31 | 1008.0 |
| 20260504221128 | 82 | 261 | 4.3 | 7.0 | 0.00 | 0.00 | 0.00 | 31 | 1008.0 |
| 20260504220627 | 82 | 280 | 4.3 | 6.1 | 0.00 | 0.00 | 0.00 | 31 | 1008.0 |
| 20260504220127 | 81 | 261 | 1.7 | 3.5 | 0.00 | 0.00 | 0.00 | 30 | 1008.0 |
| 20260504215627 | 81 | 290 | 5.2 | 7.0 | 0.00 | 0.00 | 0.00 | 31 | 1008.0 |
| 20260504215127 | 81 | 267 | 2.6 | 4.3 | 0.00 | 0.00 | 0.00 | 31 | 1008.0 |
| 20260504214627 | 81 | 236 | 2.6 | 4.3 | 0.00 | 0.00 | 0.00 | 31 | 1008.0 |
| 20260504214127 | 81 | 268 | 5.2 | 8.7 | 0.00 | 0.00 | 0.00 | 31 | 1008.0 |
| 20260504213627 | 81 | 270 | 4.3 | 7.8 | 0.00 | 0.00 | 0.00 | 31 | 1008.0 |
| 20260504213127 | 81 | 266 | 4.3 | 6.1 | 0.00 | 0.00 | 0.00 | 31 | 1008.0 |
| 20260504212627 | 80 | 257 | 3.5 | 5.2 | 0.00 | 0.00 | 0.00 | 32 | 1008.0 |
| 20260504212127 | 80 | 269 | 4.3 | 9.6 | 0.00 | 0.00 | 0.00 | 32 | 1008.0 |
| 20260504211628 | 79 | 260 | 3.5 | 7.0 | 0.00 | 0.00 | 0.00 | 32 | 1008.0 |
| 20260504211128 | 79 | 239 | 4.3 | 7.0 | 0.00 | 0.00 | 0.00 | 32 | 1008.0 |
| 20260504210627 | 79 | 265 | 2.6 | 5.2 | 0.00 | 0.00 | 0.00 | 33 | 1008.0 |
| 20260504210128 | 79 | 255 | 5.2 | 7.8 | 0.00 | 0.00 | 0.00 | 31 | 1008.0 |
| 20260504205627 | 78 | 268 | 3.5 | 7.0 | 0.00 | 0.00 | 0.00 | 34 | 1008.0 |
| 20260504205128 | 78 | 270 | 4.3 | 6.1 | 0.00 | 0.00 | 0.00 | 33 | 1008.0 |
| 20260504204627 | 79 | 265 | 5.2 | 7.8 | 0.00 | 0.00 | 0.00 | 33 | 1008.0 |
| 20260504204129 | 79 | 264 | 5.2 | 7.8 | 0.00 | 0.00 | 0.00 | 33 | 1008.0 |
| 20260504203628 | 78 | 279 | 4.3 | 7.8 | 0.00 | 0.00 | 0.00 | 35 | 1008.0 |
| 20260504203127 | 78 | 248 | 4.3 | 7.8 | 0.00 | 0.00 | 0.00 | 33 | 1008.0 |
| 20260504202627 | 77 | 268 | 5.2 | 8.7 | 0.00 | 0.00 | 0.00 | 33 | 1008.0 |
| 20260504202127 | 78 | 264 | 5.2 | 7.8 | 0.00 | 0.00 | 0.00 | 33 | 1008.0 |
| 20260504201627 | 78 | 264 | 2.6 | 6.1 | 0.00 | 0.00 | 0.00 | 34 | 1008.0 |
| 20260504201127 | 78 | 271 | 4.3 | 8.7 | 0.00 | 0.00 | 0.00 | 34 | 1008.0 |
| 20260504200627 | 77 | 258 | 4.3 | 7.0 | 0.00 | 0.00 | 0.00 | 35 | 1008.0 |
| 20260504200127 | 76 | 271 | 2.6 | 4.3 | 0.00 | 0.00 | 0.00 | 35 | 1009.0 |
| 20260504195627 | 77 | 259 | 4.3 | 7.0 | 0.00 | 0.00 | 0.00 | 34 | 1009.0 |
| 20260504195127 | 77 | 270 | 3.5 | 7.0 | 0.00 | 0.00 | 0.00 | 34 | 1008.0 |
| 20260504194627 | 77 | 268 | 4.3 | 8.7 | 0.00 | 0.00 | 0.00 | 34 | 1009.0 |
| 20260504194127 | 77 | 275 | 4.3 | 7.0 | 0.00 | 0.00 | 0.00 | 34 | 1009.0 |
| 20260504193628 | 77 | 254 | 3.5 | 5.2 | 0.00 | 0.00 | 0.00 | 35 | 1009.0 |
| 20260504193127 | 77 | 276 | 7.0 | 11.3 | 0.00 | 0.00 | 0.00 | 34 | 1009.0 |
| 20260504192627 | 77 | 255 | 3.5 | 7.8 | 0.00 | 0.00 | 0.00 | 35 | 1009.0 |
| 20260504192128 | 77 | 266 | 4.3 | 7.0 | 0.00 | 0.00 | 0.00 | 36 | 1009.0 |
| 20260504191627 | 77 | 251 | 4.3 | 8.7 | 0.00 | 0.00 | 0.00 | 35 | 1009.0 |
| 20260504191127 | 77 | 271 | 4.3 | 6.1 | 0.00 | 0.00 | 0.00 | 36 | 1009.0 |
| 20260504190627 | 77 | 282 | 4.3 | 6.1 | 0.00 | 0.00 | 0.00 | 37 | 1009.0 |
| 20260504190128 | 76 | 278 | 5.2 | 7.8 | 0.00 | 0.00 | 0.00 | 36 | 1009.0 |
| 20260504185628 | 76 | 260 | 2.6 | 3.5 | 0.00 | 0.00 | 0.00 | 36 | 1009.0 |
| 20260504185127 | 76 | 254 | 4.3 | 7.0 | 0.00 | 0.00 | 0.00 | 37 | 1009.0 |
| 20260504184627 | 76 | 263 | 3.5 | 5.2 | 0.00 | 0.00 | 0.00 | 37 | 1009.0 |
| 20260504184127 | 75 | 286 | 5.2 | 8.7 | 0.00 | 0.00 | 0.00 | 37 | 1009.0 |
| 20260504183627 | 75 | 281 | 5.2 | 7.0 | 0.00 | 0.00 | 0.00 | 37 | 1009.0 |
| 20260504183127 | 74 | 285 | 3.5 | 5.2 | 0.00 | 0.00 | 0.00 | 37 | 1009.0 |
| 20260504182628 | 74 | 254 | 4.3 | 6.1 | 0.00 | 0.00 | 0.00 | 38 | 1009.0 |
| 20260504182127 | 74 | 272 | 3.5 | 5.2 | 0.00 | 0.00 | 0.00 | 38 | 1010.0 |
| 20260504181627 | 74 | 276 | 4.3 | 7.8 | 0.00 | 0.00 | 0.00 | 39 | 1010.0 |
| 20260504181127 | 73 | 278 | 3.5 | 6.1 | 0.00 | 0.00 | 0.00 | 39 | 1010.0 |
| 20260504180628 | 73 | 274 | 5.2 | 7.0 | 0.00 | 0.00 | 0.00 | 39 | 1010.0 |
| 20260504180128 | 73 | 268 | 5.2 | 7.0 | 0.00 | 0.00 | 0.00 | 41 | 1010.0 |
| 20260504175627 | 72 | 250 | 4.3 | 6.1 | 0.00 | 0.00 | 0.00 | 41 | 1010.0 |
| 20260504175127 | 72 | 250 | 4.3 | 7.8 | 0.00 | 0.00 | 0.00 | 41 | 1010.0 |
| 20260504174627 | 71 | 249 | 4.3 | 6.1 | 0.00 | 0.00 | 0.00 | 42 | 1010.0 |
| 20260504174127 | 71 | 262 | 3.5 | 5.2 | 0.00 | 0.00 | 0.00 | 42 | 1010.0 |
| 20260504173628 | 71 | 252 | 3.5 | 5.2 | 0.00 | 0.00 | 0.00 | 41 | 1010.0 |
| 20260504173127 | 70 | 262 | 5.2 | 7.8 | 0.00 | 0.00 | 0.00 | 41 | 1010.0 |
| 20260504172628 | 70 | 265 | 5.2 | 7.0 | 0.00 | 0.00 | 0.00 | 43 | 1010.0 |
| 20260504172127 | 69 | 278 | 4.3 | 7.8 | 0.00 | 0.00 | 0.00 | 44 | 1010.0 |
| 20260504171627 | 69 | 273 | 5.2 | 7.8 | 0.00 | 0.00 | 0.00 | 44 | 1010.0 |
| 20260504171128 | 68 | 279 | 6.1 | 10.4 | 0.00 | 0.00 | 0.00 | 43 | 1010.0 |
| 20260504170627 | 68 | 284 | 6.1 | 9.6 | 0.00 | 0.00 | 0.00 | 44 | 1010.0 |
| 20260504170127 | 68 | 280 | 6.1 | 9.6 | 0.00 | 0.00 | 0.00 | 43 | 1010.0 |
| 20260504160127 | 62 | 287 | 6.1 | 8.7 | 0.00 | 0.00 | 0.00 | 54 | 1011.0 |
| 20260504151127 | 60 | 293 | 1.7 | 2.6 | 0.00 | 0.00 | 0.00 | 52 | 1011.0 |
| 20260504150628 | 60 | 292 | 1.7 | 3.5 | 0.00 | 0.00 | 0.00 | 52 | 1011.0 |
| 20260504150128 | 59 | 279 | 1.7 | 3.5 | 0.00 | 0.00 | 0.00 | 51 | 1011.0 |
| 20260504141128 | 51 | 142 | 1.7 | 2.6 | 0.00 | 0.00 | 0.00 | 67 | 1011.0 |
| 20260504140628 | 50 | 170 | 0.0 | 0.9 | 0.00 | 0.00 | 0.00 | 68 | 1011.0 |
| 20260504140127 | 48 | 133 | 0.0 | 0.0 | 0.00 | 0.00 | 0.00 | 71 | 1011.0 |
| 20260504130628 | 42 | 128 | 1.7 | 1.7 | 0.00 | 0.00 | 0.00 | 82 | 1011.0 |
| 20260504130128 | 42 | 123 | 0.9 | 0.9 | 0.00 | 0.00 | 0.00 | 80 | 1011.0 |
| 20260504120128 | 44 | 172 | 0.0 | 0.9 | 0.00 | 0.00 | 0.00 | 77 | 1010.0 |
| 20260504110630 | 44 | 175 | 0.0 | 0.9 | 0.00 | 0.00 | 0.00 | 79 | 1010.0 |
| 20260504110127 | 44 | 199 | 0.0 | 0.9 | 0.00 | 0.00 | 0.00 | 78 | 1010.0 |